| time (UTC) | temp F | wind direction | speed MPH | gust MPH | rain 1hr in | rain 24hr in | rain mn in | humidity % | barometer mb |
| 20260504030340 | 78 | 248 | 3.0 | 9.0 | 0.00 | 0.00 | 0.00 | 18 | 1011.6 |
| 20260504030106 | 79 | 234 | 4.0 | 7.0 | 0.00 | 0.00 | 0.00 | 17 | 1011.5 |
| 20260504025340 | 79 | 245 | 4.0 | 8.0 | 0.00 | 0.00 | 0.00 | 17 | 1011.4 |
| 20260504024839 | 79 | 255 | 5.0 | 11.0 | 0.00 | 0.00 | 0.00 | 17 | 1011.4 |
| 20260504024341 | 80 | 249 | 5.0 | 11.0 | 0.00 | 0.00 | 0.00 | 17 | 1011.2 |
| 20260504023841 | 80 | 210 | 5.0 | 11.0 | 0.00 | 0.00 | 0.00 | 16 | 1011.1 |
| 20260504023340 | 80 | 219 | 7.0 | 12.0 | 0.00 | 0.00 | 0.00 | 16 | 1010.9 |
| 20260504022840 | 81 | 250 | 7.0 | 13.0 | 0.00 | 0.00 | 0.00 | 15 | 1010.7 |
| 20260504022343 | 81 | 248 | 7.0 | 13.0 | 0.00 | 0.00 | 0.00 | 15 | 1010.7 |
| 20260504021843 | 81 | 266 | 6.0 | 13.0 | 0.00 | 0.00 | 0.00 | 14 | 1010.6 |
| 20260504021341 | 82 | 253 | 6.0 | 12.0 | 0.00 | 0.00 | 0.00 | 14 | 1010.7 |
| 20260504020841 | 82 | 266 | 6.0 | 12.0 | 0.00 | 0.00 | 0.00 | 13 | 1010.6 |
| 20260504020340 | 82 | 211 | 6.0 | 12.0 | 0.00 | 0.00 | 0.00 | 13 | 1010.5 |
| 20260504015842 | 82 | 252 | 7.0 | 13.0 | 0.00 | 0.00 | 0.00 | 13 | 1010.1 |
| 20260504015339 | 83 | 207 | 6.0 | 13.0 | 0.00 | 0.00 | 0.00 | 13 | 1010.2 |
| 20260504014840 | 83 | 230 | 6.0 | 12.0 | 0.00 | 0.00 | 0.00 | 13 | 1010.1 |
| 20260504014341 | 83 | 250 | 7.0 | 15.0 | 0.00 | 0.00 | 0.00 | 13 | 1010.2 |
| 20260504013840 | 83 | 282 | 8.0 | 15.0 | 0.00 | 0.00 | 0.00 | 13 | 1010.1 |
| 20260504013339 | 84 | 224 | 8.0 | 15.0 | 0.00 | 0.00 | 0.00 | 13 | 1010.1 |
| 20260504012839 | 84 | 225 | 7.0 | 14.0 | 0.00 | 0.00 | 0.00 | 12 | 1010.0 |
| 20260504012340 | 85 | 252 | 8.0 | 14.0 | 0.00 | 0.00 | 0.00 | 12 | 1010.0 |
| 20260504011839 | 85 | 238 | 8.0 | 17.0 | 0.00 | 0.00 | 0.00 | 12 | 1010.1 |
| 20260504011339 | 85 | 257 | 8.0 | 17.0 | 0.00 | 0.00 | 0.00 | 12 | 1010.2 |
| 20260504010840 | 86 | 258 | 8.0 | 16.0 | 0.00 | 0.00 | 0.00 | 12 | 1010.5 |
| 20260504010339 | 86 | 254 | 9.0 | 16.0 | 0.00 | 0.00 | 0.00 | 12 | 1010.2 |
| 20260504005839 | 86 | 220 | 8.0 | 16.0 | 0.00 | 0.00 | 0.00 | 12 | 1010.3 |
| 20260504005341 | 86 | 248 | 7.0 | 14.0 | 0.00 | 0.00 | 0.00 | 12 | 1010.5 |
| 20260504004839 | 86 | 257 | 8.0 | 15.0 | 0.00 | 0.00 | 0.00 | 12 | 1010.5 |
| 20260504004340 | 86 | 230 | 9.0 | 15.0 | 0.00 | 0.00 | 0.00 | 12 | 1010.5 |
| 20260504003840 | 86 | 290 | 9.0 | 15.0 | 0.00 | 0.00 | 0.00 | 13 | 1010.3 |
| 20260504003328 | 86 | 238 | 9.0 | 16.0 | 0.00 | 0.00 | 0.00 | 12 | 1010.3 |
| 20260504002824 | 86 | 238 | 9.0 | 16.0 | 0.00 | 0.00 | 0.00 | 12 | 1010.2 |
| 20260504002321 | 87 | 226 | 9.0 | 16.0 | 0.00 | 0.00 | 0.00 | 12 | 1010.2 |
| 20260504001819 | 87 | 283 | 8.0 | 15.0 | 0.00 | 0.00 | 0.00 | 12 | 1010.2 |
| 20260504001320 | 88 | 263 | 8.0 | 15.0 | 0.00 | 0.00 | 0.00 | 12 | 1010.2 |
| 20260504000818 | 88 | 217 | 9.0 | 17.0 | 0.00 | 0.00 | 0.00 | 12 | 1010.2 |
| 20260504000318 | 88 | 193 | 9.0 | 17.0 | 0.00 | 0.00 | 0.00 | 12 | 1010.1 |
| 20260503235817 | 89 | 203 | 8.0 | 19.0 | 0.00 | 0.00 | 0.00 | 12 | 1010.2 |
| 20260503235316 | 89 | 211 | 8.0 | 23.0 | 0.00 | 0.00 | 0.00 | 12 | 1010.1 |
| 20260503234816 | 89 | 234 | 9.0 | 23.0 | 0.00 | 0.00 | 0.00 | 12 | 1010.0 |
| 20260503234316 | 89 | 231 | 8.0 | 17.0 | 0.00 | 0.00 | 0.00 | 12 | 1009.9 |
| 20260503233813 | 89 | 234 | 7.0 | 17.0 | 0.00 | 0.00 | 0.00 | 12 | 1009.9 |
| 20260503233313 | 89 | 259 | 7.0 | 15.0 | 0.00 | 0.00 | 0.00 | 13 | 1009.9 |
| 20260503233033 | 89 | 254 | 7.0 | 15.0 | 0.00 | 0.00 | 0.00 | 13 | 1009.9 |
| 20260503232311 | 90 | 338 | 8.0 | 15.0 | 0.00 | 0.00 | 0.00 | 14 | 1009.9 |
| 20260503231815 | 91 | 235 | 6.0 | 14.0 | 0.00 | 0.00 | 0.00 | 14 | 1010.0 |
| 20260503231314 | 90 | 243 | 6.0 | 14.0 | 0.00 | 0.00 | 0.00 | 13 | 1009.9 |
| 20260503231031 | 90 | 205 | 6.0 | 17.0 | 0.00 | 0.00 | 0.00 | 13 | 1009.9 |
| 20260503230258 | 90 | 167 | 7.0 | 18.0 | 0.00 | 0.00 | 0.00 | 14 | 1010.0 |
| 20260503225752 | 90 | 220 | 7.0 | 18.0 | 0.00 | 0.00 | 0.00 | 14 | 1010.0 |
| 20260503225247 | 90 | 250 | 7.0 | 12.0 | 0.00 | 0.00 | 0.00 | 13 | 1010.1 |
| 20260503224737 | 90 | 264 | 6.0 | 18.0 | 0.00 | 0.00 | 0.00 | 13 | 1010.2 |
| 20260503224231 | 90 | 137 | 6.0 | 18.0 | 0.00 | 0.00 | 0.00 | 14 | 1010.3 |
| 20260503223724 | 90 | 241 | 5.0 | 14.0 | 0.00 | 0.00 | 0.00 | 13 | 1010.2 |
| 20260503223214 | 90 | 223 | 4.0 | 14.0 | 0.00 | 0.00 | 0.00 | 13 | 1010.5 |
| 20260503222707 | 90 | 134 | 4.0 | 9.0 | 0.00 | 0.00 | 0.00 | 14 | 1010.5 |
| 20260503222204 | 89 | 203 | 4.0 | 9.0 | 0.00 | 0.00 | 0.00 | 14 | 1010.5 |
| 20260503221651 | 89 | 232 | 3.0 | 7.0 | 0.00 | 0.00 | 0.00 | 14 | 1010.5 |
| 20260503221148 | 89 | 218 | 2.0 | 9.0 | 0.00 | 0.00 | 0.00 | 15 | 1010.5 |
| 20260503220640 | 89 | 286 | 2.0 | 9.0 | 0.00 | 0.00 | 0.00 | 15 | 1010.5 |
| 20260503220131 | 89 | 245 | 3.0 | 7.0 | 0.00 | 0.00 | 0.00 | 15 | 1010.6 |
| 20260503215623 | 89 | 205 | 2.0 | 7.0 | 0.00 | 0.00 | 0.00 | 16 | 1010.6 |
| 20260503215119 | 88 | 131 | 2.0 | 7.0 | 0.00 | 0.00 | 0.00 | 19 | 1010.7 |
| 20260503214609 | 88 | 213 | 3.0 | 8.0 | 0.00 | 0.00 | 0.00 | 20 | 1010.8 |
| 20260503214103 | 88 | 205 | 4.0 | 9.0 | 0.00 | 0.00 | 0.00 | 20 | 1011.0 |
| 20260503213557 | 88 | 148 | 6.0 | 14.0 | 0.00 | 0.00 | 0.00 | 20 | 1011.0 |
| 20260503213047 | 88 | 193 | 6.0 | 14.0 | 0.00 | 0.00 | 0.00 | 20 | 1011.1 |
| 20260503212541 | 89 | 134 | 3.0 | 9.0 | 0.00 | 0.00 | 0.00 | 20 | 1011.3 |
| 20260503212301 | 89 | 13 | 4.0 | 8.0 | 0.00 | 0.00 | 0.00 | 21 | 1011.3 |
| 20260503211525 | 89 | 99 | 4.0 | 9.0 | 0.00 | 0.00 | 0.00 | 22 | 1011.4 |
| 20260503211018 | 88 | 208 | 2.0 | 9.0 | 0.00 | 0.00 | 0.00 | 22 | 1011.3 |
| 20260503210512 | 87 | 120 | 1.0 | 5.0 | 0.00 | 0.00 | 0.00 | 23 | 1011.4 |
| 20260503210224 | 87 | 120 | 1.0 | 5.0 | 0.00 | 0.00 | 0.00 | 23 | 1011.5 |
| 20260503205457 | 87 | 144 | 3.0 | 10.0 | 0.00 | 0.00 | 0.00 | 23 | 1011.6 |
| 20260503205433 | 86 | 123 | 3.0 | 10.0 | 0.00 | 0.00 | 0.00 | 24 | 1011.9 |
| 20260503204441 | 87 | 146 | 3.0 | 9.0 | 0.00 | 0.00 | 0.00 | 24 | 1011.9 |
| 20260503204156 | 87 | 114 | 3.0 | 9.0 | 0.00 | 0.00 | 0.00 | 24 | 1012.1 |
| 20260503203429 | 87 | 131 | 4.0 | 10.0 | 0.00 | 0.00 | 0.00 | 24 | 1012.1 |
| 20260503203408 | 86 | 37 | 4.0 | 10.0 | 0.00 | 0.00 | 0.00 | 24 | 1012.2 |
| 20260503202634 | 87 | 100 | 2.0 | 9.0 | 0.00 | 0.00 | 0.00 | 24 | 1012.2 |
| 20260503201907 | 87 | 151 | 1.0 | 6.0 | 0.00 | 0.00 | 0.00 | 24 | 1012.3 |
| 20260503201356 | 86 | 139 | 2.0 | 6.0 | 0.00 | 0.00 | 0.00 | 25 | 1012.3 |
| 20260503200850 | 86 | 139 | 3.0 | 10.0 | 0.00 | 0.00 | 0.00 | 25 | 1012.4 |
| 20260503200345 | 86 | 107 | 2.0 | 10.0 | 0.00 | 0.00 | 0.00 | 25 | 1012.6 |
| 20260503195835 | 85 | 176 | 3.0 | 9.0 | 0.00 | 0.00 | 0.00 | 24 | 1012.5 |
| 20260503195327 | 85 | 134 | 4.0 | 9.0 | 0.00 | 0.00 | 0.00 | 24 | 1012.7 |
| 20260503194823 | 85 | 105 | 4.0 | 10.0 | 0.00 | 0.00 | 0.00 | 24 | 1012.8 |
| 20260503194313 | 85 | 140 | 4.0 | 9.0 | 0.00 | 0.00 | 0.00 | 24 | 1012.8 |
| 20260503193805 | 85 | 109 | 5.0 | 11.0 | 0.00 | 0.00 | 0.00 | 23 | 1012.8 |
| 20260503193300 | 85 | 143 | 6.0 | 14.0 | 0.00 | 0.00 | 0.00 | 22 | 1012.9 |
| 20260503192751 | 86 | 139 | 5.0 | 13.0 | 0.00 | 0.00 | 0.00 | 22 | 1012.8 |
| 20260503192508 | 85 | 148 | 5.0 | 9.0 | 0.00 | 0.00 | 0.00 | 22 | 1012.9 |
| 20260503192010 | 85 | 146 | 4.0 | 9.0 | 0.00 | 0.00 | 0.00 | 22 | 1013.1 |
| 20260503191229 | 85 | 142 | 3.0 | 8.0 | 0.00 | 0.00 | 0.00 | 26 | 1013.2 |
| 20260503190722 | 84 | 158 | 4.0 | 9.0 | 0.00 | 0.00 | 0.00 | 28 | 1013.3 |
| 20260503190217 | 84 | 168 | 5.0 | 9.0 | 0.00 | 0.00 | 0.00 | 27 | 1013.4 |
| 20260503185707 | 83 | 157 | 5.0 | 11.0 | 0.00 | 0.00 | 0.00 | 28 | 1013.4 |
| 20260503185240 | 83 | 153 | 5.0 | 11.0 | 0.00 | 0.00 | 0.00 | 28 | 1013.6 |
| 20260503184145 | 83 | 92 | 5.0 | 11.0 | 0.00 | 0.00 | 0.00 | 29 | 1013.8 |
| 20260503183732 | 82 | 119 | 6.0 | 14.0 | 0.00 | 0.00 | 0.00 | 29 | 1013.8 |
| 20260503182622 | 82 | 127 | 5.0 | 11.0 | 0.00 | 0.00 | 0.00 | 29 | 1014.0 |
| 20260503182340 | 82 | 154 | 6.0 | 11.0 | 0.00 | 0.00 | 0.00 | 29 | 1014.1 |
| 20260503181611 | 82 | 126 | 6.0 | 11.0 | 0.00 | 0.00 | 0.00 | 29 | 1014.2 |
| 20260503181059 | 82 | 101 | 6.0 | 12.0 | 0.00 | 0.00 | 0.00 | 30 | 1014.2 |
| 20260503180555 | 81 | 86 | 6.0 | 12.0 | 0.00 | 0.00 | 0.00 | 29 | 1014.4 |
| 20260503180049 | 81 | 148 | 5.0 | 12.0 | 0.00 | 0.00 | 0.00 | 30 | 1014.2 |
| 20260503175539 | 81 | 150 | 5.0 | 11.0 | 0.00 | 0.00 | 0.00 | 30 | 1014.5 |
| 20260503175032 | 81 | 134 | 5.0 | 12.0 | 0.00 | 0.00 | 0.00 | 30 | 1014.6 |
| 20260503174526 | 81 | 91 | 6.0 | 14.0 | 0.00 | 0.00 | 0.00 | 30 | 1014.6 |
| 20260503174014 | 81 | 133 | 6.0 | 14.0 | 0.00 | 0.00 | 0.00 | 30 | 1014.6 |
| 20260503173508 | 81 | 149 | 6.0 | 14.0 | 0.00 | 0.00 | 0.00 | 30 | 1014.6 |
| 20260503173002 | 81 | 156 | 7.0 | 14.0 | 0.00 | 0.00 | 0.00 | 30 | 1014.6 |
| 20260503172452 | 81 | 122 | 6.0 | 13.0 | 0.00 | 0.00 | 0.00 | 30 | 1014.6 |
| 20260503171946 | 81 | 134 | 6.0 | 11.0 | 0.00 | 0.00 | 0.00 | 30 | 1014.6 |
| 20260503171439 | 80 | 139 | 5.0 | 11.0 | 0.00 | 0.00 | 0.00 | 30 | 1014.8 |
| 20260503171155 | 81 | 187 | 6.0 | 9.0 | 0.00 | 0.00 | 0.00 | 30 | 1014.8 |
| 20260503170425 | 80 | 148 | 5.0 | 10.0 | 0.00 | 0.00 | 0.00 | 30 | 1014.9 |
| 20260503160149 | 78 | 65 | 1.0 | 3.0 | 0.00 | 0.00 | 0.00 | 32 | 1014.8 |
| 20260503150852 | 75 | 84 | 0.0 | 2.0 | 0.00 | 0.00 | 0.00 | 35 | 1014.9 |
| 20260503150351 | 75 | 94 | 0.0 | 2.0 | 0.00 | 0.00 | 0.00 | 36 | 1014.9 |
| 20260503131350 | 70 | 125 | 0.0 | 3.0 | 0.00 | 0.00 | 0.00 | 41 | 1014.0 |
| 20260503130849 | 70 | 96 | 0.0 | 3.0 | 0.00 | 0.00 | 0.00 | 41 | 1014.0 |
| 20260503130350 | 70 | 100 | 0.0 | 3.0 | 0.00 | 0.00 | 0.00 | 41 | 1013.8 |
| 20260503110329 | 70 | 157 | 0.0 | 0.0 | 0.00 | 0.00 | 0.00 | 39 | 1013.7 |
| 20260503100246 | 70 | 82 | 1.0 | 3.0 | 0.00 | 0.00 | 0.00 | 38 | 1013.8 |
| 20260503090146 | 69 | 165 | 0.0 | 0.0 | 0.00 | 0.00 | 0.00 | 38 | 1013.9 |
| 20260503090118 | 69 | 222 | 0.0 | 1.0 | 0.00 | 0.00 | 0.00 | 39 | 1014.0 |
| 20260503081512 | 72 | 88 | 0.0 | 1.0 | 0.00 | 0.00 | 0.00 | 35 | 1014.2 |
| 20260503081001 | 72 | 89 | 1.0 | 2.0 | 0.00 | 0.00 | 0.00 | 35 | 1014.2 |
| 20260503080456 | 73 | 86 | 1.0 | 3.0 | 0.00 | 0.00 | 0.00 | 35 | 1014.4 |
| 20260503072906 | 74 | 66 | 2.0 | 6.0 | 0.00 | 0.00 | 0.00 | 32 | 1014.2 |
| 20260503072351 | 75 | 82 | 2.0 | 5.0 | 0.00 | 0.00 | 0.00 | 32 | 1014.4 |
| 20260503071844 | 75 | 41 | 2.0 | 5.0 | 0.00 | 0.00 | 0.00 | 32 | 1014.5 |
| 20260503071601 | 75 | 66 | 1.0 | 5.0 | 0.00 | 0.00 | 0.00 | 32 | 1014.4 |
| 20260503070830 | 75 | 63 | 2.0 | 10.0 | 0.00 | 0.00 | 0.00 | 32 | 1014.5 |
| 20260503070322 | 75 | 48 | 3.0 | 10.0 | 0.00 | 0.00 | 0.00 | 31 | 1014.5 |
| 20260503060220 | 76 | 39 | 1.0 | 7.0 | 0.00 | 0.00 | 0.00 | 31 | 1013.6 |
| 20260503054718 | 76 | 31 | 3.0 | 10.0 | 0.00 | 0.00 | 0.00 | 30 | 1013.5 |
| 20260503054218 | 77 | 72 | 3.0 | 10.0 | 0.00 | 0.00 | 0.00 | 30 | 1013.5 |
| 20260503053716 | 77 | 66 | 4.0 | 13.0 | 0.00 | 0.00 | 0.00 | 30 | 1013.4 |
| 20260503053216 | 77 | 27 | 6.0 | 14.0 | 0.00 | 0.00 | 0.00 | 30 | 1013.5 |
| 20260503052716 | 77 | 40 | 7.0 | 14.0 | 0.00 | 0.00 | 0.00 | 30 | 1013.5 |
| 20260503052216 | 77 | 74 | 6.0 | 13.0 | 0.00 | 0.00 | 0.00 | 29 | 1013.7 |
| 20260503051712 | 77 | 19 | 6.0 | 15.0 | 0.00 | 0.00 | 0.00 | 29 | 1013.6 |
| 20260503051212 | 77 | 37 | 6.0 | 15.0 | 0.00 | 0.00 | 0.00 | 29 | 1013.5 |
| 20260503050930 | 77 | 15 | 6.0 | 12.0 | 0.00 | 0.00 | 0.00 | 29 | 1013.5 |
| 20260503050205 | 77 | 43 | 5.0 | 12.0 | 0.00 | 0.00 | 0.00 | 29 | 1013.4 |
| 20260503045702 | 77 | 39 | 3.0 | 12.0 | 0.00 | 0.00 | 0.00 | 29 | 1013.4 |
| 20260503045202 | 77 | 20 | 3.0 | 11.0 | 0.00 | 0.00 | 0.00 | 29 | 1013.4 |
| 20260503044700 | 77 | 28 | 5.0 | 11.0 | 0.00 | 0.00 | 0.00 | 29 | 1013.4 |
| 20260503044200 | 77 | 70 | 5.0 | 11.0 | 0.00 | 0.00 | 0.00 | 29 | 1013.3 |
| 20260503043659 | 77 | 354 | 5.0 | 11.0 | 0.00 | 0.00 | 0.00 | 29 | 1013.2 |
| 20260503043204 | 77 | 350 | 6.0 | 11.0 | 0.00 | 0.00 | 0.00 | 28 | 1013.1 |
| 20260503042700 | 78 | 4 | 6.0 | 18.0 | 0.00 | 0.00 | 0.00 | 28 | 1013.2 |
| 20260503042158 | 78 | 18 | 6.0 | 21.0 | 0.00 | 0.00 | 0.00 | 28 | 1012.9 |
| 20260503041657 | 78 | 6 | 3.0 | 19.0 | 0.00 | 0.00 | 0.00 | 28 | 1012.7 |
| 20260503041156 | 78 | 15 | 4.0 | 13.0 | 0.00 | 0.00 | 0.00 | 28 | 1012.7 |
| 20260503040655 | 78 | 86 | 4.0 | 13.0 | 0.00 | 0.00 | 0.00 | 28 | 1012.6 |
| 20260503040156 | 78 | 107 | 3.0 | 9.0 | 0.00 | 0.00 | 0.00 | 28 | 1012.5 |
| 20260503035657 | 78 | 45 | 4.0 | 9.0 | 0.00 | 0.00 | 0.00 | 27 | 1012.4 |
| 20260503035647 | 78 | 15 | 4.0 | 9.0 | 0.00 | 0.00 | 0.00 | 27 | 1012.5 |
| 20260503034651 | 78 | 24 | 3.0 | 9.0 | 0.00 | 0.00 | 0.00 | 27 | 1012.5 |
| 20260503034145 | 79 | 71 | 3.0 | 9.0 | 0.00 | 0.00 | 0.00 | 27 | 1012.5 |
| 20260503033637 | 78 | 72 | 3.0 | 9.0 | 0.00 | 0.00 | 0.00 | 27 | 1012.5 |
| 20260503033359 | 78 | 58 | 3.0 | 8.0 | 0.00 | 0.00 | 0.00 | 27 | 1012.5 |
| 20260503032638 | 79 | 63 | 3.0 | 8.0 | 0.00 | 0.00 | 0.00 | 26 | 1012.4 |
| 20260503032139 | 79 | 33 | 2.0 | 5.0 | 0.00 | 0.00 | 0.00 | 26 | 1012.3 |
| 20260503031638 | 79 | 70 | 2.0 | 7.0 | 0.00 | 0.00 | 0.00 | 26 | 1012.2 |
| 20260503031138 | 79 | 63 | 3.0 | 9.0 | 0.00 | 0.00 | 0.00 | 26 | 1012.2 |
| 20260503030638 | 79 | 39 | 4.0 | 11.0 | 0.00 | 0.00 | 0.00 | 26 | 1012.2 |